EW0380 Weather Reports


Display with metric or nautical units.
time (UTC)temp
F
wind
direction
speed
MPH
gust
MPH
rain 1hr
in
rain 24hr
in
rain mn
in
humidity
%
barometer
mb
20260510203031 57 356 4.0 6.0 0.00 0.37 0.05 49 1020.2
20260510202017 56 344 3.0 5.0 0.00 0.37 0.05 48 1020.1
20260510201022 57 7 5.0 8.0 0.00 0.37 0.05 49 1020.2
20260510200026 56 284 4.0 6.0 0.00 0.37 0.05 49 1020.4
20260510195030 56 23 4.0 6.0 0.00 0.37 0.05 48 1020.4
20260510194037 57 20 5.0 8.0 0.00 0.37 0.05 48 1020.3
20260510193021 58 22 5.0 6.0 0.00 0.37 0.05 45 1020.3
20260510192025 58 316 4.0 5.0 0.00 0.37 0.05 45 1020.3
20260510191049 59 357 4.0 6.0 0.00 0.37 0.05 44 1020.0
20260510190016 59 20 4.0 6.0 0.00 0.37 0.05 47 1019.9
20260510185020 58 3 3.0 4.0 0.00 0.37 0.05 46 1019.8
20260510184044 59 2 4.0 6.0 0.00 0.37 0.05 46 1019.8
20260510183029 59 7 3.0 5.0 0.00 0.37 0.05 50 1019.7
20260510182015 57 10 5.0 7.0 0.00 0.37 0.05 48 1019.6
20260510181019 56 358 4.0 6.0 0.00 0.37 0.05 53 1019.6
20260510180024 56 14 6.0 8.0 0.00 0.37 0.05 51 1019.6
20260510175048 56 22 6.0 8.0 0.00 0.37 0.05 51 1019.5
20260510174052 56 6 3.0 5.0 0.00 0.37 0.05 51 1019.5
20260510173018 57 2 3.0 6.0 0.00 0.37 0.05 48 1019.5
20260510172023 57 337 3.0 5.0 0.00 0.37 0.05 52 1019.4
20260510171027 57 31 4.0 6.0 0.00 0.37 0.05 53 1019.3
20260510170051 55 16 4.0 5.0 0.00 0.37 0.05 53 1019.1
20260510165018 55 16 3.0 5.0 0.00 0.37 0.05 55 1019.1
20260510164022 0 0.0 0.0 0.00 0.37 0.05 1019.0
20260510163026 0 0.0 0.0 0.00 0.37 0.05 1019.0
20260510162030 0 0.0 0.0 0.00 0.37 0.05 1018.8
20260510161037 0 0.0 0.0 0.00 0.37 0.05 1018.8
20260510160021 0 0.0 0.0 0.00 0.37 0.05 1018.8
20260510155025 0 0.0 0.0 0.00 0.37 0.05 1018.7
20260510154023 53 20 4.0 6.0 0.00 0.37 0.05 61 1018.6
20260510153016 52 14 5.0 6.0 0.00 0.37 0.05 63 1018.6
20260510152020 52 11 4.0 6.0 0.00 0.37 0.05 60 1018.5
20260510151018 52 10 4.0 7.0 0.00 0.37 0.05 61 1018.4
20260510150016 53 7 4.0 6.0 0.00 0.37 0.05 61 1018.4
20260510145015 52 20 4.0 6.0 0.00 0.37 0.05 63 1018.4
20260510144019 52 10 4.0 6.0 0.00 0.37 0.05 60 1018.3
20260510143024 52 338 3.0 5.0 0.00 0.37 0.05 65 1018.2
20260510142028 52 17 3.0 5.0 0.00 0.37 0.05 63 1018.2
20260510141032 51 350 4.0 5.0 0.00 0.37 0.05 65 1018.0
20260510140019 50 19 3.0 4.0 0.00 0.37 0.05 67 1017.9
20260510135023 50 9 4.0 6.0 0.00 0.37 0.05 66 1017.7
20260510134028 49 345 4.0 5.0 0.00 0.37 0.05 68 1017.5
20260510133032 49 7 5.0 7.0 0.00 0.37 0.05 66 1017.3
20260510132018 48 14 5.0 7.0 0.00 0.37 0.05 67 1017.2
20260510131043 48 13 5.0 7.0 0.00 0.37 0.05 65 1017.2
20260510130026 48 2 5.0 7.0 0.00 0.37 0.05 70 1017.1
20260510125051 48 16 4.0 5.0 0.00 0.37 0.05 80 1016.9
20260510124017 48 20 3.0 4.0 0.00 0.37 0.05 83 1016.7
20260510123021 47 15 4.0 6.0 0.00 0.37 0.05 83 1016.5
20260510122025 47 9 3.0 4.0 0.00 0.37 0.05 85 1016.3
20260510121030 47 5 3.0 4.0 0.00 0.37 0.05 87 1016.0
20260510120036 46 357 3.0 3.0 0.00 0.37 0.05 91 1015.9
20260510115021 46 3 2.0 3.0 0.00 0.37 0.05 92 1015.6
20260510114025 44 360 3.0 3.0 0.00 0.37 0.05 93 1015.4
20260510113029 44 355 2.0 3.0 0.00 0.37 0.05 94 1015.3
20260510112015 43 11 3.0 3.0 0.00 0.37 0.05 96 1015.2
20260510111021 43 0.0 0.0 0.00 0.37 0.05 96 1015.2
20260510110045 43 0.0 0.0 0.00 0.37 0.05 97 1014.8
20260510105029 43 0.0 0.0 0.00 0.37 0.05 97 1014.6
20260510104015 43 0.0 0.0 0.00 0.37 0.05 97 1014.5
20260510103039 43 0.0 0.0 0.00 0.37 0.05 97 1014.4
20260510102024 43 0.0 0.0 0.00 0.37 0.05 97 1014.1
20260510101049 44 0.0 0.0 0.00 0.37 0.05 97 1014.1
20260510100047 44 0.0 0.0 0.00 0.37 0.05 97 1013.8
20260510095019 44 3 2.0 3.0 0.00 0.37 0.05 97 1013.5
20260510094023 45 0.0 0.0 0.00 0.37 0.05 97 1013.4
20260510093041 45 0.0 0.0 0.00 0.37 0.05 97 1013.4
20260510092020 45 23 0.0 1.0 0.00 0.37 0.05 97 1013.1
20260510091018 45 0.0 0.0 0.00 0.37 0.05 96 1012.9
20260510090017 45 7 1.0 2.0 0.00 0.37 0.05 96 1012.6
20260510085015 46 351 1.0 2.0 0.00 0.37 0.05 96 1012.4
20260510084025 46 3 2.0 3.0 0.00 0.37 0.05 96 1012.3
20260510083029 46 0 0.0 2.0 0.00 0.37 0.05 96 1012.2
20260510082036 46 4 1.0 2.0 0.00 0.37 0.05 96 1012.2
20260510081020 46 12 1.0 3.0 0.00 0.37 0.05 96 1011.8
20260510080024 47 3 2.0 3.0 0.00 0.37 0.05 96 1011.7
20260510075029 47 5 2.0 3.0 0.00 0.37 0.05 96 1011.6
20260510074015 47 0 2.0 3.0 0.00 0.37 0.05 96 1011.5
20260510073019 47 0 2.0 2.0 0.00 0.37 0.05 96 1011.4
20260510072023 48 0.0 0.0 0.00 0.37 0.05 96 1011.4
20260510071027 48 0.0 0.0 0.00 0.37 0.05 96 1011.2
20260510070052 48 26 1.0 2.0 0.00 0.37 0.05 96 1011.1
20260510065018 48 5 3.0 3.0 0.00 0.37 0.05 96 1010.9
20260510064022 49 23 0.0 1.0 0.00 0.37 0.05 96 1010.8
20260510063026 49 9 3.0 4.0 0.00 0.37 0.05 96 1010.7
20260510062030 50 342 1.0 2.0 0.00 0.37 0.05 96 1011.0
20260510061037 50 60 0.0 1.0 0.03 0.37 0.05 95 1011.4
20260510055045 51 0.0 0.0 0.03 0.37 0.05 95 1010.5
20260510054030 51 0.0 1.0 0.03 0.37 0.05 95 1010.2
20260510053036 51 3 3.0 5.0 0.03 0.37 0.05 95 1010.0
20260510052040 52 11 4.0 4.0 0.03 0.37 0.05 96 1010.5
20260510051024 53 267 3.0 5.0 0.02 0.34 0.02 96 1010.0
20260510050029 53 45 0.0 2.0 0.02 0.34 0.02 96 1009.5
20260510045014 53 0.0 0.0 0.02 0.34 0.02 96 1009.4
20260510044019 53 0 0.0 2.0 0.02 0.34 0.02 96 1009.3
20260510043023 53 265 1.0 3.0 0.02 0.34 0.02 96 1009.3
20260510042027 53 203 0.0 2.0 0.02 0.34 0.02 95 1009.3
20260510041026 53 176 3.0 4.0 0.00 0.32 0.00 95 1008.6
20260510040058 53 171 5.0 6.0 0.00 0.32 0.00 95 1008.7
20260510035023 53 196 5.0 8.0 0.00 0.32 0.32 95 1008.7
20260510034021 52 189 7.0 10.0 0.00 0.32 0.32 97 1008.5
20260510033039 52 127 2.0 3.0 0.00 0.32 0.32 97 1008.2
20260510032017 52 219 2.0 3.0 0.00 0.32 0.32 97 1008.2
20260510031016 52 0.0 0.0 0.00 0.32 0.32 96 1007.9
20260510030026 53 203 0.0 1.0 0.00 0.32 0.32 96 1008.2
20260510025030 53 183 3.0 5.0 0.00 0.32 0.32 96 1008.4
20260510024016 53 186 4.0 5.0 0.00 0.32 0.32 96 1008.4
20260510023022 53 188 4.0 7.0 0.00 0.32 0.32 96 1008.3
20260510022025 53 176 4.0 6.0 0.00 0.32 0.32 96 1008.3
20260510021029 53 171 3.0 5.0 0.00 0.32 0.32 96 1008.3
20260510020016 53 144 3.0 4.0 0.00 0.32 0.32 95 1008.1
20260510015101 53 168 3.0 3.0 0.00 0.32 0.32 95 1007.8
20260510014024 53 163 3.0 4.0 0.00 0.32 0.32 95 1007.8
20260510013028 54 162 4.0 5.0 0.00 0.32 0.32 94 1007.7
20260510012053 54 173 4.0 5.0 0.00 0.32 0.32 94 1007.6
20260510011019 54 172 5.0 6.0 0.00 0.32 0.32 94 1007.5
20260510010023 54 185 4.0 5.0 0.00 0.33 0.32 94 1007.5
20260510005113 54 170 4.0 6.0 0.00 0.33 0.32 94 1007.4
20260510004032 54 150 4.0 5.0 0.00 0.33 0.32 94 1007.4
20260510003018 54 153 3.0 6.0 0.01 0.33 0.32 94 1007.5
20260510002022 55 161 4.0 5.0 0.04 0.33 0.32 93 1007.4
20260510001026 55 172 2.0 4.0 0.07 0.33 0.32 92 1007.2
20260510000030 55 168 4.0 5.0 0.11 0.33 0.32 92 1007.1
20260509235038 55 200 6.0 7.0 0.31 0.33 0.32 92 1007.0
20260509234021 55 200 7.0 10.0 0.32 0.33 0.32 92 1007.2
20260509233025 54 241 6.0 8.0 0.31 0.32 0.31 93 1007.6
20260509232050 54 261 3.0 6.0 0.28 0.29 0.28 93 1007.8
20260509231016 54 249 4.0 7.0 0.25 0.26 0.25 92 1008.2
20260509230020 54 268 6.0 9.0 0.21 0.22 0.21 89 1007.5
20260509225025 59 37 5.0 6.0 0.01 0.02 0.01 78 1005.8
20260509224029 67 243 8.0 11.0 0.00 0.01 0.00 59 1005.2
20260509223035 67 222 10.0 14.0 0.00 0.01 0.00 60 1004.9
20260509222038 67 200 8.0 11.0 0.00 0.01 0.00 60 1004.6
20260509221023 67 194 11.0 13.0 0.00 0.01 0.00 60 1004.1
20260509220041 68 207 11.0 13.0 0.00 0.01 0.00 60 1004.2
20260509215020 68 206 15.0 22.0 0.00 0.01 0.00 59 1004.0
20260509214018 70 195 12.0 19.0 0.00 0.01 0.00 58 1004.1
20260509213016 69 193 13.0 18.0 0.00 0.01 0.00 58 1004.2
20260509212026 68 208 14.0 19.0 0.00 0.01 0.00 58 1004.4
20260509211031 68 203 12.0 15.0 0.00 0.01 0.00 60 1004.6
20260509210017 68 212 12.0 16.0 0.00 0.01 0.00 59 1005.0
20260509205021 69 200 13.0 17.0 0.00 0.01 0.00 59 1005.0
20260509204025 68 200 12.0 15.0 0.00 0.01 0.00 60 1005.1